RPC9307 RPVE-RPUN

Flight info

Callsign RPC9307
Flight time N/A
Altitude 13000
Route MINOR6A MINOR DCT PENIA
Aircraft B58T/L-SDFGRY/C

Departure

Time 2026-05-05 05:57
Airport Godofredo P. Ramos Airport (RPVE)

Arrival

Time N/A
Airport Naga Airport (RPUN)
Time Latitude Longitude Altitude Speed Heading
2026-05-05 05:43 11.92617 121.96272 20 ft 0 kts 152°
2026-05-05 05:52 11.92616 121.96272 23 ft 0 kts 152°
2026-05-05 05:53 11.92609 121.96268 21 ft 2 kts 256°
2026-05-05 05:53 11.92646 121.96251 21 ft 9 kts 343°
2026-05-05 05:53 11.92647 121.96209 21 ft 5 kts 281°
2026-05-05 05:54 11.92675 121.96186 20 ft 11 kts 334°
2026-05-05 05:54 11.92739 121.96154 20 ft 17 kts 331°
2026-05-05 05:54 11.92756 121.96144 20 ft 0 kts 333°
2026-05-05 05:54 11.92778 121.96133 20 ft 11 kts 335°
2026-05-05 05:55 11.92790 121.96061 21 ft 15 kts 241°
2026-05-05 05:55 11.92732 121.95947 21 ft 21 kts 242°
2026-05-05 05:55 11.92657 121.95800 21 ft 26 kts 245°
2026-05-05 05:55 11.92569 121.95623 20 ft 30 kts 242°
2026-05-05 05:56 11.92470 121.95428 19 ft 28 kts 240°
2026-05-05 05:56 11.92402 121.95324 19 ft 22 kts 242°
2026-05-05 05:56 11.92408 121.95303 19 ft 9 kts 63°
2026-05-05 05:56 11.92433 121.95350 19 ft 20 kts 62°
2026-05-05 05:57 11.92724 121.95931 34 ft 106 kts 63°
2026-05-05 05:57 11.93242 121.96918 292 ft 127 kts 64°
2026-05-05 05:57 11.93644 121.97783 454 ft 140 kts 65°
2026-05-05 05:57 11.94023 121.98728 739 ft 142 kts 68°
2026-05-05 05:58 11.94469 121.99608 1162 ft 139 kts 60°
2026-05-05 05:58 11.94971 122.00426 1544 ft 141 kts 59°
2026-05-05 05:58 11.95340 122.01011 1571 ft 155 kts 59°
2026-05-05 05:58 11.95970 122.01902 1910 ft 152 kts 50°
2026-05-05 05:59 11.96708 122.02721 2102 ft 159 kts 50°
2026-05-05 05:59 11.97585 122.03443 2310 ft 167 kts 36°
2026-05-05 05:59 11.98622 122.04078 2350 ft 179 kts 31°
2026-05-05 05:59 12.00040 122.04807 2880 ft 163 kts 30°
2026-05-05 06:00 12.01079 122.05331 2937 ft 171 kts 30°
2026-05-05 06:00 12.01796 122.05695 2935 ft 176 kts 30°
2026-05-05 06:00 12.02907 122.06257 2945 ft 180 kts 30°
2026-05-05 06:00 12.04022 122.06820 3084 ft 174 kts 30°
2026-05-05 06:01 12.04984 122.07299 3844 ft 132 kts 31°
2026-05-05 06:01 12.05759 122.07690 4371 ft 127 kts 32°
2026-05-05 06:01 12.06555 122.08098 4738 ft 127 kts 32°
2026-05-05 06:01 12.07355 122.08503 5070 ft 129 kts 32°
2026-05-05 06:02 12.08157 122.08910 5417 ft 129 kts 33°
2026-05-05 06:02 12.08964 122.09319 5764 ft 130 kts 33°
2026-05-05 06:02 12.09777 122.09730 6108 ft 131 kts 33°
2026-05-05 06:02 12.10595 122.10145 6432 ft 132 kts 33°
2026-05-05 06:03 12.11425 122.10565 6738 ft 133 kts 32°
2026-05-05 06:03 12.12261 122.10989 7049 ft 135 kts 33°
2026-05-05 06:03 12.13105 122.11416 7365 ft 136 kts 33°
2026-05-05 06:03 12.13946 122.11842 7679 ft 137 kts 33°
2026-05-05 06:04 12.14807 122.12279 8005 ft 139 kts 32°
2026-05-05 06:04 12.15681 122.12721 8315 ft 140 kts 32°
2026-05-05 06:04 12.16560 122.13167 8633 ft 142 kts 32°
2026-05-05 06:04 12.17452 122.13619 8941 ft 143 kts 32°
2026-05-05 06:05 12.18351 122.14074 9257 ft 145 kts 32°
2026-05-05 06:05 12.19258 122.14534 9582 ft 146 kts 32°
2026-05-05 06:05 12.20177 122.14998 9881 ft 148 kts 32°
2026-05-05 06:05 12.21102 122.15468 10177 ft 148 kts 32°
2026-05-05 06:06 12.22030 122.15939 10469 ft 149 kts 32°
2026-05-05 06:06 12.22961 122.16411 10765 ft 150 kts 31°
2026-05-05 06:06 12.23898 122.16886 11068 ft 151 kts 31°
2026-05-05 06:06 12.24827 122.17357 11357 ft 151 kts 31°
2026-05-05 06:07 12.25773 122.17836 11655 ft 152 kts 31°
2026-05-05 06:07 12.26721 122.18317 11959 ft 153 kts 31°
2026-05-05 06:07 12.27675 122.18801 12263 ft 153 kts 30°
2026-05-05 06:07 12.28635 122.19287 12567 ft 154 kts 30°
2026-05-05 06:08 12.29595 122.19775 12872 ft 155 kts 30°
2026-05-05 06:08 12.30607 122.20291 12948 ft 171 kts 30°
2026-05-05 06:08 12.31723 122.20859 12955 ft 186 kts 29°
2026-05-05 06:08 12.32915 122.21464 12954 ft 196 kts 29°
2026-05-05 06:09 12.34164 122.22096 12951 ft 203 kts 29°
2026-05-05 06:09 12.35449 122.22747 12950 ft 208 kts 29°
2026-05-05 06:09 12.36751 122.23421 12949 ft 211 kts 33°
2026-05-05 06:09 12.37904 122.24316 12955 ft 211 kts 41°
2026-05-05 06:10 12.39057 122.25265 12950 ft 213 kts 41°
2026-05-05 06:10 12.40225 122.26212 12950 ft 214 kts 41°
2026-05-05 06:10 12.41393 122.27161 12948 ft 215 kts 41°
2026-05-05 06:10 12.42568 122.28118 12951 ft 215 kts 40°
2026-05-05 06:11 12.43725 122.29061 12952 ft 216 kts 40°
2026-05-05 06:11 12.44898 122.30016 12951 ft 216 kts 40°
2026-05-05 06:11 12.45295 122.30339 12954 ft 216 kts 40°
2026-05-05 06:11 12.45692 122.30663 12949 ft 216 kts 40°